Regional Weather Roundup
Issued by NWS

Home | Current Version | Previous Version | Graphics & Text | Print | Product List | Glossary On
Versions: 1 2 3 4 5 6 7 8 9 10 11 12 13 14 15 16 17 18 19 20 21 22 23 24 25 26 27 28 29 30 31 32 33 34 35 36 37 38 39 40 41 42 43 44 45 46 47 48 49 50
000
ASUS45 KABQ 280710
RWRNM
WEATHER ROUNDUP FOR NEW MEXICO
NATIONAL WEATHER SERVICE ALBUQUERQUE NM
1200 AM MST WED JAN 28 2015

NOTE: "FAIR" MEANS FEW OR NO CLOUDS BELOW 12,000 FEET AGL WITH NO
       SIGNIFICANT WEATHER OR OBSTRUCTIONS TO VISION.

      THIS PRODUCT IS RELEASED AS TWO VERSIONS.  ONE VERSION NEAR
      THE TOP OF THE HOUR CONTAINING PRELIMINARY DATA FROM ALBUQUERQUE
      AND OTHER STATIONS.  A FINAL VERSION WITH ADDITIONAL DATA IS
      ISSUED ABOUT 10 MINUTES AFTER THE HOUR.

NMZ501-503-504-510>518-280800-
NORTHWEST PLATEAU/NORTHCENTRAL MOUNTAINS

CITY           SKY/WX    TMP DP  RH WIND       PRES   REMARKS
FARMINGTON     CLOUDY    39  30  70 CALM      30.26F
LOS ALAMOS     CLEAR     41  32  70 CALM      30.29F
SANTA FE       CLEAR     41  33  73 N9        30.25S
TAOS           CLEAR     32  27  80 E7        30.28F WCI  26
ANGEL FIRE     FAIR      34  31  86 CALM      30.30F

$$
NMZ402-403-502-505>509-280800-
WESTCENTRAL MOUNTAINS/SOUTHWEST MOUNTAINS

CITY           SKY/WX    TMP DP  RH WIND       PRES   REMARKS
GALLUP         CLEAR     32  29  88 E3        30.31S
GRANTS         CLOUDY    32  30  92 CALM      30.32S
SILVER CITY    CLEAR     41  32  70 N10       30.28S

$$
NMZ407-409-411-412-280800-
SOUTHERN DESERTS

CITY           SKY/WX    TMP DP  RH WIND       PRES   REMARKS
LORDSBURG      FAIR      41  36  81 CALM      30.24S
DEMING         CLEAR     41  36  82 W7        30.24R
LAS CRUCES     PTCLDY    47  41  78 W8        30.24S
HOLLOMAN AFB   PTCLDY    42  36  81 E5        30.20F
ALAMOGORDO     PTCLDY    43  34  70 CALM      30.22F
T OR C         CLEAR     47  35  63 W5        30.23R

$$
NMZ519>523-280800-
CENTRAL VALLEYS/CENTRAL HIGHLANDS

CITY           SKY/WX    TMP DP  RH WIND       PRES   REMARKS
ALBUQUERQUE    PTCLDY    44  29  55 E5        30.25F
DOUBLE EAGLE   PTCLDY    39  32  76 NW7       30.27F WCI  34
MORIARTY ARPT  FAIR      36  30  80 W7        30.27F WCI  30
CLINES CORNERS CLEAR     38  31  76 W18       30.23F WCI  28
BELEN          FAIR      35  31  85 W7        30.26S WCI  29
SOCORRO        FAIR      41  33  73 NW6       30.24S

$$
NMZ524>526-539-540-280800-
SOUTHCENTRAL MOUNTAINS

CITY           SKY/WX    TMP DP  RH WIND       PRES   REMARKS
RUIDOSO        PTCLDY    43  36  75 W8        30.29F

$$
NMZ527>531-280800-
NORTHEAST HIGHLANDS/NORTHEAST PLAINS

CITY           SKY/WX    TMP DP  RH WIND       PRES   REMARKS
LAS VEGAS      CLEAR     42  28  57 W5        30.17F
RATON          CLEAR     33  28  81 NW3       30.10F
CLAYTON        CLEAR     46  33  60 W13       30.02F

$$
NMZ532>537-280800-
EASTCENTRAL PLAINS

CITY           SKY/WX    TMP DP  RH WIND       PRES   REMARKS
TUCUMCARI      CLEAR     45  36  70 SW9       30.07F
CANNON AFB     CLEAR     46  37  70 W9        30.14F
CLOVIS AIRPORT CLEAR     48  36  61 W14       30.14F

$$
NMZ028-029-538-280800-
SOUTHEAST PLAINS

CITY           SKY/WX    TMP DP  RH WIND       PRES   REMARKS
ROSWELL        CLEAR     44  37  76 CALM      30.16F
ARTESIA        CLEAR     46  39  76 CALM      30.17F
CARLSBAD       CLEAR     47  39  74 NW5       30.15S
HOBBS          CLEAR     45  36  70 CALM      30.17F


$$



USA.gov is the U.S. government's official web portal to all federal, state and local government web resources and services.